Regional Weather Roundup
Issued by NWS

Home | Current Version | Previous Version | Text Only | Print | Product List | Glossary Off
Versions: 1 2 3 4 5 6 7 8 9 10 11 12 13 14 15 16 17 18 19 20 21 22 23 24 25 26 27 28 29 30 31 32 33 34 35 36 37 38 39 40 41 42 43 44 45 46 47

000
ASUS45 KCYS 020010
RWRWY

WYOMING REGIONAL WEATHER ROUNDUP
NATIONAL WEATHER SERVICE CHEYENNE WY
500 PM MST SUN MAR 01 2015

NOTE:  "FAIR" INDICATES FEW OR NO CLOUDS BELOW 12,000 FEET
WITH NO SIGNIFICANT WEATHER AND/OR OBSTRUCTIONS TO VISIBILITY.

WYZ001-020100-
YELLOWSTONE NATIONAL PARK

CITY           SKY/WX    TMP DP  RH WIND       PRES   REMARKS
LK YELLOWSTONE   N/A     20  -7  30 CALM      30.01F
6HR MIN TEMP:   0; 6HR MAX TEMP:  21;

W YELLOWSTONE  NOT AVBL

$$
WYZ002>013-054>058-071-098>099-020100-
NORTHERN WYOMING

CITY           SKY/WX    TMP DP  RH WIND       PRES   REMARKS
JACKSON        SUNNY     21  12  68 VRB5      30.03F WCI  15
CODY           FAIR      27  14  59 SE10      30.09F WCI  17
GREYBULL       FAIR      31   5  33 S9        30.16F WCI  23
6HR MIN TEMP:  26; 6HR MAX TEMP:  32;

WORLAND        FAIR      29   8  41 E8        30.16F WCI  21
6HR MIN TEMP:  23; 6HR MAX TEMP:  30;

SHERIDAN       FAIR      25   9  50 S6        30.18F WCI  18
6HR MIN TEMP:  23; 6HR MAX TEMP:  26;

BUFFALO        FAIR      22  10  60 S8        30.14F WCI  12
6HR MIN TEMP:  18; 6HR MAX TEMP:  24;

GILLETTE       FAIR      27   3  35 CALM      30.18F
6HR MIN TEMP:  21; 6HR MAX TEMP:  27;

HULETT         FAIR      23   7  50 CALM      30.21F
NEWCASTLE      FAIR      27   1  33 NW8       30.23S WCI  18

$$
WYZ014>020-022>026-101>103-020100-
CENTRAL WYOMING

CITY           SKY/WX    TMP DP  RH WIND       PRES   REMARKS
BIG PINEY      PTSUNNY   31  13  47 VRB5      30.05F WCI  26
6HR MIN TEMP:  22; 6HR MAX TEMP:  31;

PINEDALE       MOCLDY    23  12  63 NW6       30.06F WCI  16
DUBOIS         FAIR      21  12  68 SE6       30.01F WCI  14
LANDER         CLOUDY    22  11  62 NE5       30.10F WCI  16
6HR MIN TEMP:  20; 6HR MAX TEMP:  25;

RIVERTON       FAIR      22   9  57 S6        30.13F WCI  14
6HR MIN TEMP:  19; 6HR MAX TEMP:  24;

CASPER         FAIR      29   7  39 CALM      30.13F
6HR MIN TEMP:  23; 6HR MAX TEMP:  30;

DOUGLAS        FAIR      27  10  49 E7        30.20S WCI  19
6HR MIN TEMP:  23; 6HR MAX TEMP:  29;


$$
WYZ021-027>030-104>119-020100-
SOUTHERN WYOMING

CITY           SKY/WX    TMP DP  RH WIND       PRES   REMARKS
EVANSTON       FAIR      29  19  66 E13       30.00F WCI  19
6HR MIN TEMP:  21; 6HR MAX TEMP:  31;

KEMMERER       FAIR      32  14  47 E5        30.02F WCI  27
FORT BRIDGER   CLOUDY    28  20  70 SE3       30.06F
ROCK SPRINGS   CLOUDY    30  17  58 SE5       30.04F WCI  25
6HR MIN TEMP:  20; 6HR MAX TEMP:  30;

DIXON          FAIR      35  22  58 CALM      30.08F
RAWLINS        CLOUDY    32  15  49 CALM      30.07S
6HR MIN TEMP:  19; 6HR MAX TEMP:  33;

SARATOGA       FAIR      30  21  69 S3        30.07S
LARAMIE        MOCLDY    19  12  74 SW6       30.09S WCI  11
6HR MIN TEMP:  14; 6HR MAX TEMP:  21;

CHEYENNE       MOCLDY    22  13  68 SW3       30.16F
6HR MIN TEMP:  19; 6HR MAX TEMP:  27;

TORRINGTON     FAIR      33   7  33 CALM      30.22F
6HR MIN TEMP:  28; 6HR MAX TEMP:  35;

PINE BLUFFS    FAIR      27  14  59 CALM      30.22S

$$



USA.gov is the U.S. government's official web portal to all federal, state and local government web resources and services.